Home   Weather   Izmir   Past weeks

Flag for Turkey Past Weather in Izmir, Turkey — Yesterday and Last 2 Weeks

Now
73 °F

Sunny.


Feels Like: 77 °F
Forecast: 60 / 79 °F
Wind: 17 mph from North

Location: Izmir / Adnan Menderes

Current Time: Sep 26, 2016 at 11:57:32 AM

Latest Report: Sep 26, 2016 at 11:20 AM


Visibility: 10 mi

Pressure: 29.95 "Hg

Humidity: 36%

Dew Point: 45 °F

Location of IzmirLocation

Past Weather in Izmir — Graph

°F

Izmir Temperature Yesterday

Maximum temperature yesterday: 77 °F (at 4:20 PM)
Minimum temperature yesterday: 52 °F (at 6:20 AM)
Average temperature yesterday: 67 °F

High & Low Weather Summary for the Past Weeks

 TemperatureHumidityPressure
High93 °F (Sep 18, 1:50 PM)94% (Sep 21, 3:20 AM)30.18 "Hg (Sep 21, 3:20 AM)
Low52 °F (Sep 25, 6:20 AM)17% (Sep 17, 3:50 PM)29.68 "Hg (Sep 20, 3:50 PM)
Average73 °F52%29.92 "Hg
* Reported Sep 11 10:20 AM — Sep 26 10:50 AM, Izmir, Weather by CustomWeather, © 2016

Note: Actual official high and low records may vary slightly from our data, if they occured in-between our weather recording intervals... More about our weather records

Advertising

Izmir Weather History for the Previous 24 Hours

Scroll right to see more
 ConditionsComfort  
Time TempWeatherWind HumidityBarometerVisibility
10:50 AM
Mon, Sep 26
72 °FPassing clouds.15 mph41%29.95 "HgN/A
10:20 AM70 °FSunny.14 mph43%29.95 "Hg10 mi
9:50 AM66 °FSunny.13 mph49%29.95 "Hg10 mi
9:20 AM66 °FSunny.10 mph49%29.95 "Hg10 mi
8:50 AM63 °FSunny.9 mph56%29.92 "Hg10 mi
8:20 AM63 °FSunny.12 mph56%29.92 "Hg10 mi
7:50 AM61 °FSunny.9 mph59%29.92 "Hg10 mi
7:20 AM54 °FSunny.3 mph72%29.92 "Hg10 mi
6:50 AM59 °FClear.8 mph63%29.92 "Hg10 mi
6:20 AM59 °FClear.10 mph63%29.92 "Hg10 mi
5:50 AM59 °FClear.8 mph63%29.89 "Hg10 mi
5:20 AM59 °FClear.13 mph63%29.89 "Hg10 mi
4:50 AM61 °FClear.9 mph59%29.92 "Hg10 mi
4:20 AM63 °FClear.13 mph56%29.92 "Hg10 mi
3:50 AM61 °FClear.9 mph59%29.92 "Hg10 mi
3:20 AM61 °FClear.9 mph59%29.92 "Hg10 mi
2:50 AM61 °FClear.9 mph59%29.92 "Hg10 mi
2:20 AM63 °FClear.10 mph52%29.92 "Hg10 mi
1:50 AM63 °FClear.10 mph52%29.92 "Hg10 mi
1:20 AM63 °FClear.2 mph52%29.92 "Hg10 mi
12:50 AM63 °FClear.8 mph52%29.92 "Hg10 mi
12:20 AM64 °FPassing clouds.6 mph49%29.92 "HgN/A
11:50 PM
Sun, Sep 25
66 °FClear.13 mph46%29.92 "Hg10 mi
11:20 PM66 °FClear.13 mph46%29.92 "Hg10 mi
10:50 PM66 °FClear.16 mph46%29.92 "Hg10 mi
10:20 PM68 °FClear.15 mph43%29.92 "Hg10 mi
9:50 PM68 °FClear.14 mph40%29.92 "Hg10 mi
9:20 PM68 °FClear.13 mph40%29.92 "Hg10 mi
8:50 PM68 °FClear.9 mph43%29.92 "Hg10 mi
8:20 PM70 °FClear.14 mph40%29.89 "Hg10 mi
7:50 PM72 °FClear.14 mph38%29.89 "Hg10 mi
7:20 PM72 °FPassing clouds.13 mph38%29.89 "HgN/A
6:50 PM72 °FSunny.13 mph38%29.89 "Hg10 mi
6:20 PM73 °FSunny.14 mph36%29.89 "Hg10 mi
5:50 PM73 °FSunny.15 mph36%29.89 "Hg10 mi
5:20 PM75 °FPassing clouds.16 mph34%29.89 "HgN/A
4:50 PM75 °FSunny.16 mph31%29.89 "Hg10 mi
4:20 PM77 °FPassing clouds.16 mph30%29.89 "HgN/A
3:50 PM75 °FSunny.16 mph29%29.89 "Hg10 mi
3:20 PM75 °FPassing clouds.14 mph29%29.92 "HgN/A
2:50 PM75 °FPassing clouds.15 mph29%29.92 "HgN/A
2:20 PM75 °FSunny.15 mph29%29.92 "Hg10 mi
1:50 PM75 °FSunny.13 mph29%29.95 "Hg10 mi
1:20 PM73 °FPassing clouds.12 mph31%29.95 "HgN/A
12:50 PM73 °FPassing clouds.13 mph33%29.95 "HgN/A
12:20 PM73 °FSunny.16 mph31%29.95 "Hg10 mi
11:50 AM72 °FSunny.15 mph33%29.98 "Hg10 mi
11:20 AM72 °FSunny.15 mph33%29.98 "Hg10 mi
Weather by CustomWeather, © 2016

See weather overviewHow to use our weather pages